[[{"header":{"parameterUnit":"m.s-1","parameterCategory":1,"la1":30.2991,"la2":30.254,"lo1":-89.0895,"lo2":-89.0444,"dy":0.0017,"dx":0.0017,"nx":28,"ny":28,"refTime":"2025-09-13T03:00:00:Z","depth":0,"parameterNumber":2,"parameterNumberName":"U-component_of_WINDS"},"data":[0,0,0,0,0,0,0,0,0,0,0,0,0,0,0,0,0,0,0,0,0,0,0,0,0,0,0,0,0,0,0,0,0,0,0,0,0,0,0,0,0,0,0,0,0,0,0,0,0,0,0,0,0,0,0,0,0,0,-4.1033,-4.1034,0,-4.113,-4.1131,-4.1132,-4.1108,-4.1106,-4.1104,-4.1102,-4.1202,-4.1206,-4.121,0,0,0,0,0,0,0,0,0,0,0,0,0,-4.0828,-4.0832,-4.1033,-4.1034,-4.1036,-4.113,-4.1131,-4.1133,-4.1108,-4.1106,-4.1103,-4.1101,-4.12,-4.1205,-4.1211,0,0,0,0,0,0,0,0,0,0,0,0,0,-4.092,-4.0833,-4.1033,-4.1035,-4.1036,-4.113,-4.1131,-4.1133,-4.1109,-4.1106,-4.1103,-4.11,-4.1198,-4.1205,-4.1211,-4.1309,0,0,-4.1232,-4.1234,0,0,0,0,0,0,0,0,-4.0915,-4.0928,-4.1033,-4.1035,-4.1036,-4.1104,-4.1096,-4.1192,-4.1109,-4.1081,-4.1102,-4.1099,-4.1171,-4.118,-4.1204,-4.1314,-4.1318,-4.1232,-4.1236,-4.1239,-4.1241,0,0,0,0,0,0,0,-4.0909,-4.0924,-4.1072,-4.1035,-4.1037,-4.1031,-4.1041,-4.1114,-4.1141,-4.1083,-4.1082,-4.1094,-4.1172,-4.1198,-4.1207,-4.132,-4.1232,-4.1238,-4.1242,-4.1245,-4.1517,-4.152,0,0,0,0,0,0,-4.0901,-4.0919,-4.1069,-4.1075,-4.0968,-4.1037,-4.1048,-4.1085,-4.114,-4.1146,-4.1096,-4.1092,-4.1188,-4.1199,-4.121,-4.1329,-4.1239,-4.1245,-4.1249,-4.1514,-4.1517,-4.1521,0,0,0,0,0,0,-4.0897,-4.0915,-4.1065,-4.0996,-4.1015,-4.1044,-4.1085,-4.1089,-4.1115,-4.115,-4.1154,-4.1118,-4.1186,-4.1201,-4.1285,-4.1332,-4.1248,-4.1254,-4.151,-4.1515,-4.1519,-4.1568,0,0,0,0,0,0,-4.0891,-4.0913,-4.095,-4.0997,-4.1019,-4.1138,-4.1088,-4.1093,-4.1127,-4.1122,-4.1172,-4.1177,-4.1185,-4.1276,-4.1292,-4.134,-4.1259,-4.1506,-4.1512,-4.1518,-4.1562,-4.1574,-4.1584,0,0,0,0,0,-4.0884,-4.096,-4.0952,-4.0971,-4.1065,-4.114,-4.1153,-4.1161,-4.113,-4.1168,-4.1191,-4.1175,-4.1325,-4.1284,-4.1303,-4.1353,-4.1503,-4.151,-4.1517,-4.1557,-4.1571,-4.1583,0,0,0,0,0,0,-4.0917,-4.0966,-4.0958,-4.1051,-4.1092,-4.1136,-4.1184,-4.1175,-4.1225,-4.1219,-4.1227,-4.1239,-4.1325,-4.1348,-4.1302,-4.1452,-4.1409,-4.1421,-4.1434,-4.1447,-4.1458,-4.145,-4.1265,0,0,0,0,0,-4.0935,-4.0992,-4.1032,-4.111,-4.1131,-4.1154,-4.1187,-4.119,-4.1233,-4.1249,-4.1278,-4.132,-4.1377,-4.1413,-4.1467,-4.1566,-4.1577,-4.161,-4.1621,-4.163,-4.1639,-4.1694,-4.1709,-4.1545,-4.1545,-4.1545,0,0,-4.0973,-4.1007,-4.1042,-4.1118,-4.115,-4.1209,-4.1169,-4.1232,-4.1276,-4.1259,-4.134,-4.1364,-4.1411,-4.1504,-4.1546,-4.1525,-4.1687,-4.1639,-4.1646,-4.165,-4.1703,-4.1718,-4.1732,-4.155,-4.1549,-4.1548,0,0,-4.1072,-4.1104,-4.1173,-4.1206,-4.1255,-4.1271,-4.1288,-4.1334,-4.1348,-4.1431,-4.1419,-4.1472,-4.1569,-4.1604,-4.1634,-4.175,-4.1738,-4.1768,-4.1823,-4.1877,-4.1889,-4.1901,-4.1942,-4.1957,-4.1777,-4.1777,-4.1777,0,-4.1113,-4.1201,-4.121,-4.1275,-4.1309,-4.1298,-4.1368,-4.14,-4.1464,-4.1488,-4.1465,-4.1587,-4.1619,-4.1719,-4.1748,-4.1773,-4.1793,-4.1761,-4.1887,-4.1899,-4.1909,-4.1949,-4.1964,-4.178,-4.178,-4.178,-4.1779,0,-4.1249,-4.1311,-4.1361,-4.1424,-4.1464,-4.1532,-4.1551,-4.1591,-4.1591,-4.1609,-4.1694,-4.1732,-4.1793,-4.1818,-4.1818,-4.192,-4.1905,-4.1885,-4.1842,-4.1928,-4.1965,-4.198,-4.1785,-4.1784,-4.1783,-4.1782,0,0,-4.1369,-4.1438,-4.1456,-4.1485,-4.154,-4.1588,-4.1656,-4.1717,-4.1751,-4.1797,-4.1854,-4.1938,-4.1919,-4.1954,-4.1959,-4.2006,-4.2096,-4.198,-4.1981,-4.2,-4.221,-4.2224,-4.2242,-4.2089,-4.2092,-4.2094,-4.2206,0,-4.1472,-4.1592,-4.1603,-4.171,-4.1768,-4.1759,-4.1819,-4.1859,-4.1879,-4.1931,-4.1953,-4.2012,-4.1983,-4.2004,-4.2051,-4.2075,-4.2138,-4.2067,-4.2143,-4.2145,-4.2129,-4.2261,-4.2276,-4.2379,-4.222,-4.2223,-4.2225,0,-4.1608,-4.1659,-4.1772,-4.182,-4.1845,-4.1898,-4.1956,-4.2006,-4.2052,-4.2063,-4.2103,-4.2103,-4.2174,-4.213,-4.2228,-4.218,-4.2212,-4.2229,-4.2233,-4.2239,-4.2189,-4.227,-4.2412,-4.2427,-4.2248,-4.2246,-4.2244,0,-4.1684,-4.178,-4.1861,-4.1886,-4.1944,-4.1982,-4.2008,-4.2052,-4.2089,-4.214,-4.2164,-4.2222,-4.2254,-4.23,-4.2316,-4.2282,-4.2414,-4.2371,-4.2425,-4.2425,-4.2451,-4.2449,-4.26,-4.2474,-4.2474,-4.2474,-4.2473,0,-4.1797,-4.1867,-4.1895,-4.1945,-4.2023,-4.2036,-4.2113,-4.2138,-4.2177,-4.2232,-4.2229,-4.228,-4.2298,-4.2353,-4.2366,-4.2446,-4.246,-4.2472,-4.2474,-4.2471,-4.247,-4.2491,-4.2484,-4.2478,-4.2477,-4.2476,-4.2475,0,-4.1893,-4.1916,-4.2003,-4.2052,-4.2066,-4.2122,-4.2164,-4.2212,-4.2232,-4.2302,-4.2319,-4.235,-4.2415,-4.2435,-4.2513,-4.2522,-4.2615,-4.2612,-4.2599,-4.2599,-4.2652,-4.2646,-4.282,-4.2844,-4.2704,-4.2705,-4.2706,0,-4.1963,-4.2017,-4.2073,-4.2109,-4.2137,-4.2196,-4.2234,-4.225,-4.2289,-4.2348,-4.2389,-4.2453,-4.2505,-4.2609,-4.2639,-4.2699,-4.2696,-4.2754,-4.2705,-4.2701,-4.2696,-4.2693,-4.2698,-4.2762,-4.2763,-4.2764,-4.2765,0,-4.2085,-4.2094,-4.2149,-4.2208,-4.2254,-4.2301,-4.2347,-4.2377,-4.24,-4.2445,-4.2511,-4.2551,-4.2632,-4.2696,-4.2757,-4.2785,-4.2779,-4.2781,-4.2796,-4.2793,-4.2783,-4.2789,-4.2623,-4.2776,-4.2775,-4.2774,-4.2774,-4.2773,-4.217,-4.2218,-4.2265,-4.2326,-4.2363,-4.2406,-4.2454,-4.2481,-4.2537,-4.2603,-4.261,-4.2682,-4.2729,-4.2811,-4.2843,-4.2899,-4.2883,-4.2906,-4.2911,-4.2916,-4.292,-4.2776,-4.2911,-4.2911,-4.291,-4.291,-4.291,0,-4.2291,-4.2322,-4.2379,-4.2443,-4.2492,-4.2484,-4.2535,-4.2576,-4.2639,-4.2684,-4.2736,-4.2813,-4.2876,-4.2912,-4.2975,-4.3013,-4.3012,-4.3029,-4.3026,-4.3032,-4.2931,-4.2911,-4.3029,-4.3029,-4.3029,-4.3029,-4.3029,-4.3029,-4.236,-4.244,-4.2455,-4.2554,-4.2585,-4.2655,-4.2685,-4.2725,-4.2761,-4.2847,-4.29,-4.2923,-4.2965,-4.3032,-4.3089,-4.3098,-4.3121,-4.314,-4.3147,-4.3052,-4.3039,-4.3027,-4.3009,-4.3145,-4.3145,-4.3243,-4.3244,-4.3245]},{"header":{"parameterUnit":"m.s-1","parameterCategory":1,"la1":30.2991,"la2":30.254,"lo1":-89.0895,"lo2":-89.0444,"dy":0.0017,"dx":0.0017,"nx":28,"ny":28,"refTime":"2025-09-13T03:00:00:Z","depth":0,"parameterNumber":3,"parameterNumberName":"V-component_of_WINDS"},"data":[0,0,0,0,0,0,0,0,0,0,0,0,0,0,0,0,0,0,0,0,0,0,0,0,0,0,0,0,0,0,0,0,0,0,0,0,0,0,0,0,0,0,0,0,0,0,0,0,0,0,0,0,0,0,0,0,0,0,1.0173,1.0174,0,1.0315,1.0317,1.0319,1.0413,1.0414,1.0415,1.0415,1.0557,1.0561,1.0564,0,0,0,0,0,0,0,0,0,0,0,0,0,0.9979,0.9982,1.0173,1.0175,1.0176,1.0315,1.0317,1.0319,1.0413,1.0414,1.0415,1.0415,1.0556,1.056,1.0564,0,0,0,0,0,0,0,0,0,0,0,0,0,1.0086,0.9983,1.0172,1.024,1.0248,1.0315,1.0317,1.032,1.0413,1.0414,1.0415,1.0416,1.0555,1.056,1.0565,1.0575,0,0,1.0579,1.0581,0,0,0,0,0,0,0,0,1.008,1.0093,1.0228,1.0236,1.0244,1.0348,1.0301,1.0405,1.0413,1.035,1.0415,1.0416,1.0487,1.0497,1.0522,1.0581,1.0587,1.058,1.0582,1.0585,1.0586,0,0,0,0,0,0,0,1.0073,1.0088,1.0229,1.023,1.024,1.0262,1.0279,1.0321,1.0411,1.0356,1.0363,1.0379,1.0491,1.0517,1.0526,1.059,1.0579,1.0584,1.0587,1.0589,1.0665,1.0665,0,0,0,0,0,0,1.0055,1.0081,1.0225,1.0233,1.0163,1.0265,1.0283,1.0313,1.0411,1.0427,1.0378,1.0382,1.0508,1.052,1.0531,1.055,1.0584,1.0589,1.0592,1.0666,1.0665,1.0664,0,0,0,0,0,0,1.0051,1.0067,1.0219,1.0159,1.018,1.0267,1.03,1.0316,1.0342,1.0428,1.0444,1.0388,1.0509,1.0524,1.0564,1.0556,1.0591,1.0595,1.0667,1.0666,1.0665,1.0587,0,0,0,0,0,0,1.0045,1.0065,1.007,1.0159,1.0183,1.0249,1.03,1.0318,1.035,1.0358,1.0441,1.0456,1.0511,1.0556,1.0568,1.0563,1.0599,1.0668,1.0667,1.0665,1.059,1.0583,1.0577,0,0,0,0,0,1.0037,1.0041,1.007,1.0087,1.0192,1.0249,1.0263,1.0328,1.0349,1.0355,1.041,1.0453,1.0555,1.0559,1.0574,1.057,1.0669,1.0667,1.0665,1.0593,1.0584,1.0577,0,0,0,0,0,0,0.9948,1.0054,1.0087,1.012,1.0175,1.0265,1.0274,1.0316,1.0365,1.037,1.0447,1.0465,1.0496,1.0537,1.054,1.0585,1.0617,1.0618,1.0557,1.055,1.0543,1.0532,1.0603,0,0,0,0,0,0.9933,0.9971,1.0061,1.0082,1.0108,1.0186,1.0213,1.0258,1.0318,1.0341,1.04,1.0454,1.0499,1.0527,1.0572,1.0597,1.0616,1.0602,1.0595,1.0589,1.0588,1.0605,1.06,1.0658,1.0658,1.0658,0,0,0.99,0.9963,0.9982,1.0066,1.0113,1.0151,1.0205,1.0242,1.027,1.0346,1.0388,1.0432,1.0499,1.0531,1.0548,1.0566,1.0577,1.0586,1.0581,1.0584,1.0602,1.0597,1.0592,1.0657,1.0657,1.0657,0,0,0.9861,0.9912,0.9935,0.9982,1.0055,1.0107,1.0112,1.0196,1.0229,1.0272,1.033,1.0365,1.0439,1.0485,1.0518,1.0496,1.0538,1.0509,1.0473,1.0488,1.0483,1.0479,1.0472,1.0468,1.0508,1.0508,1.0508,0,0.9811,0.9871,0.9941,0.9976,1.001,1.0083,1.0106,1.0148,1.0231,1.0253,1.0272,1.0369,1.0419,1.0463,1.0457,1.0482,1.049,1.0499,1.0478,1.0475,1.0473,1.0466,1.0463,1.0504,1.0505,1.0505,1.0505,0,0.9806,0.9847,0.9856,0.9936,0.9972,1.0001,1.0075,1.0103,1.0145,1.0194,1.0237,1.03,1.036,1.0374,1.0414,1.0423,1.0432,1.0464,1.0497,1.0462,1.0457,1.0455,1.0498,1.05,1.0501,1.0502,0,0,0.9713,0.9833,0.9835,0.9873,0.9958,0.9991,1.0022,1.0082,1.0105,1.0159,1.0188,1.025,1.028,1.0317,1.0364,1.0377,1.0356,1.0408,1.041,1.0396,1.037,1.0346,1.0342,1.0385,1.0385,1.0384,1.0365,0,0.9687,0.9749,0.9814,0.9852,0.9891,0.996,0.9988,1.0043,1.009,1.0129,1.0181,1.0224,1.0261,1.0284,1.03,1.0355,1.0352,1.0358,1.0411,1.0412,1.0392,1.0339,1.0314,1.0292,1.0363,1.0363,1.0363,0,0.9663,0.9717,0.9759,0.9842,0.9861,0.9885,0.9945,0.9982,1.0045,1.0079,1.0121,1.0171,1.0207,1.0237,1.0288,1.029,1.0316,1.0346,1.0347,1.0354,1.0385,1.0345,1.0287,1.0283,1.0361,1.0361,1.0361,0,0.9591,0.9673,0.971,0.974,0.9837,0.9853,0.9894,0.9959,0.9991,1.0043,1.0065,1.012,1.0151,1.0192,1.0256,1.0271,1.03,1.0335,1.0328,1.0327,1.0331,1.033,1.0275,1.0347,1.0347,1.0347,1.0347,0,0.9555,0.9578,0.9679,0.9702,0.973,0.9804,0.983,0.9877,0.9934,0.9967,1.003,1.0059,1.0141,1.018,1.023,1.0264,1.0277,1.0305,1.0318,1.0299,1.0296,1.0317,1.032,1.0347,1.0347,1.0347,1.0347,0,0.9479,0.9548,0.9592,0.9681,0.9704,0.9721,0.9797,0.9821,0.9873,0.9913,0.9927,1.0007,1.0056,1.0124,1.0192,1.0226,1.0254,1.0274,1.0232,1.024,1.023,1.023,1.0187,1.0186,1.0258,1.0257,1.0256,0,0.945,0.947,0.9562,0.9589,0.9629,0.9671,0.9705,0.9778,0.9811,0.9885,0.99,0.9954,1.0001,1.0075,1.0139,1.0192,1.0215,1.0196,1.0223,1.0204,1.0214,1.0212,1.0215,1.0189,1.0188,1.0187,1.0186,0,0.9393,0.9427,0.9473,0.9532,0.9571,0.962,0.9672,0.969,0.9775,0.9808,0.9859,0.9896,0.9967,1.002,1.0082,1.0123,1.0168,1.0178,1.0179,1.016,1.0135,1.0148,1.0214,1.0178,1.0179,1.0179,1.018,1.018,0.934,0.9362,0.943,0.948,0.9528,0.9575,0.9603,0.9658,0.9703,0.9767,0.9808,0.9857,0.9921,1.0009,1.0049,1.0088,1.0106,1.0108,1.0109,1.0108,1.0101,1.0129,1.0099,1.01,1.01,1.01,1.01,0,0.9286,0.9334,0.938,0.9452,0.9491,0.9532,0.9592,0.9622,0.9665,0.9721,0.9766,0.9825,0.9877,0.9945,1.0001,1.002,1.0042,1.0032,1.0031,1.004,1.0082,1.0075,1.0013,1.0013,1.0013,1.0013,1.0013,1.0013,0.9263,0.9301,0.9343,0.9405,0.9453,0.9503,0.9534,0.9578,0.9623,0.9687,0.973,0.9775,0.9836,0.9898,0.9947,0.9965,0.9983,0.9966,0.9991,1.0029,1.0037,1.0044,1.0039,0.997,0.997,0.9947,0.9946,0.9946]}]]